Showing default

PRSC-S1, 65055

Orbit data source: Space-Track

PRSC-S1, 65055 is a payload satellite owned by SUPARCO (CN) in LEO that was launched on Thu, 31 Jul 2025 UTC via a KUAIZHOU-1A launch vehicle from the Xichang Space Center, China (XSC). Payload-class satellites include a variety of spacecraft equipped with specific instruments for various scientific and technological missions. These include communications satellites like Starlink; space stations such as the ISS; scientific satellites like the Hubble; Earth observation satellites from companies like Planet Labs, Umbra, and HawkEye 360; GPS; miniature CubeSats for education and research; and military/defense satellites.

Loading next visibility...
Identifier
65055, 2025-164A
Orbit
LEO
Country
Flag of CNCN / PRC
Related business
Manufacturer
SUPA?
Mission
Operational Civil Radar Imaging
Bus & Motor
PRSS, Unknown motor
Mass
~400 kg wet, ~400 kg dry
Launch date (UTC)
2025-07-31 (10 months ago)
Launch vehicle
KUAIZHOU-1A
Launch site
Xichang Space Center, China (XSC)
Object type
Payload
Rocket body
Debris
Shape & HBR
Box + 2 Pan, 14.5 m
Radar Cross Section
2.315 m², Large (>1 m²)

Expand to show TLE details & history
Last TLE update: 6 hours ago

TLE from 6 hours ago
0 PRSC-S1
1 65055U 25164A   26164.81647183  .00005131  00000-0  35343-3 0  9997
2 65055  41.1314 306.7953 0007086 323.4101  36.6228 15.06430611 47921
Epoch: 2026-06-13T19:35Z
TLE epoch observation values (Epoch: 2026-06-13T19:35:43.166Z)
Latitude
-0.00001°
Longitude
110.73929°
Altitude
542.753 km
Speed
7.595 km/s
True Right ascension
20h 27m 10s
True Declination
0° 00' 00"
Sunlit
Object was in full shadow at epoch
Visualization orbit readout
Latitude
Unknown
Longitude
Unknown
Altitude
Unknown
Speed
Unknown
Apparent Right ascension
Unknown
Apparent Declination
Unknown
Sunlit
N/A
Visualization observer readout
Local Sidereal Time
11:46:41
Azimuth
Unknown
Elevation
Unknown
Doppler factor
Unknown
Orbital elements
Apogee altitude
554.263 km
Perigee altitude
544.446 km
Semi-major axis
6,927.492 km
Eccentricity
0.00071
Inclination
41.1314°
RAAN
306.7953°
Arg. of periapsis
323.4101°
True anomaly
36.67127°
Mean anomaly
36.6228°
Eccentric anomaly
36.64703°
Mean motion
3.76426 °/min
Orbital period
95.64 mins
BSTAR
0.00035343
Loading maneuver chart data...
Computing Atmospheric mass density...
Loading historical data...
Loading historical data...
Loading historical data...
Loading historical data...
Loading historical data...
Loading historical data...
Loading historical data...
Other satellites on launch #164 in the year 2025 (2025-07-31 UTC)

Documentation

Showing up to 5 results
|